Location: Newark
(40.7066°N, 111.8219°W)
Time: 05:23:11
(UTC+00:00)

Transit 2A Rocket - Pass Details

Date: 21 November 2019
Orbit: 594 x 909 km, 66.7° (Epoch: 09 December)

Event Time Altitude Azimuth Distance (km) Brightness Sun altitude
Rises 06:12:02 0° 263° (W) 3,007 - -65.4°
Reaches altitude 10° 06:15:56 10° 295° (WNW) 2,031 - -65.9°
Maximum altitude 06:17:38 12° 317° (NW) 1,885 - -66.0°
Drops below altitude 10° 06:19:19 10° 340° (NNW) 1,988 - -66.2°
Sets 06:23:02 0° 12° (NNE) 2,860 - -66.6°
